Location: Dover
(39.1580°N, 75.5250°W)
Time: 10:10:38
(UTC-05:00)

ISS - All Passes

Search period start: 13 February 2016 00:00
Search period end: 23 February 2016 00:00
Orbit: 399 x 407 km, 51.6° (Epoch: 13 February)

Date Brightness Start Highest point End Pass type
(mag) Time Alt. Az. Time Alt. Az. Time Alt. Az.
13 Feb - 14:24:43 10° SW 14:27:59 78° NW 14:31:13 10° NE daylight
13 Feb - 16:02:49 10° WNW 16:04:51 15° NNW 16:06:54 10° NNE daylight
13 Feb - 19:17:46 10° NNW 19:19:57 16° NNE 19:22:07 10° ENE visible
13 Feb - 20:53:31 10° NW 20:56:46 89° SW 21:00:00 10° SE visible
14 Feb - 13:32:06 10° SSW 13:35:15 50° SE 13:38:24 10° ENE daylight
14 Feb - 15:09:15 10° W 15:11:51 22° NNW 15:14:28 10° NNE daylight
14 Feb - 18:25:24 10° NNW 18:26:54 12° NNE 18:28:23 10° NE visible
14 Feb - 20:00:50 10° NW 20:03:59 46° NE 20:07:06 10° ESE visible
14 Feb - 21:37:58 10° W 21:40:09 17° SW 21:42:20 10° S night (unlit)
15 Feb - 12:39:53 10° S 12:42:35 24° SE 12:45:17 10° ENE daylight
15 Feb - 14:15:55 10° W 14:18:55 34° NNW 14:21:56 10° NE daylight
15 Feb - 15:55:04 10° NNW 15:56:07 11° NNW 15:57:11 10° N daylight
15 Feb - 17:33:14 10° N 17:33:46 10° N 17:34:19 10° NNE daylight
15 Feb - 19:08:15 10° NNW 19:11:05 27° NNE 19:13:54 10° E visible
15 Feb - 20:44:34 10° WNW 20:47:33 33° SW 20:50:30 10° SSE visible
16 Feb - 11:48:35 10° SSE 11:50:00 12° SE 11:51:25 10° ESE daylight
16 Feb - 13:22:50 10° WSW 13:26:03 63° NW 13:29:17 10° NE daylight
16 Feb - 15:01:10 10° NW 15:03:01 14° NNW 15:04:52 10° NNE daylight
16 Feb - 18:15:45 10° NNW 18:18:06 18° NNE 18:20:27 10° ENE visible
16 Feb - 19:51:36 10° NW 19:54:50 72° SW 19:58:03 10° SE visible
17 Feb - 12:30:03 10° SW 12:33:16 63° SE 12:36:30 10° ENE daylight
17 Feb - 14:07:30 10° WNW 14:09:57 19° NNW 14:12:25 10° NNE daylight
17 Feb - 17:23:18 10° NNW 17:25:01 13° NNE 17:26:44 10° NE daylight
17 Feb - 18:58:50 10° NW 19:02:01 56° NE 19:05:12 10° ESE visible
17 Feb - 20:36:22 10° W 20:38:07 14° SW 20:39:52 10° SSW visible
18 Feb - 11:37:39 10° SSW 11:40:33 30° SE 11:43:26 10° ENE daylight
18 Feb - 13:14:03 10° W 13:16:57 29° NNW 13:19:52 10° NE daylight
18 Feb - 14:53:26 10° NNW 14:54:13 11° N 14:55:00 10° N daylight
18 Feb - 16:30:59 10° N 16:31:52 11° N 16:32:45 10° NNE daylight
18 Feb - 18:06:10 10° NW 18:09:07 31° NNE 18:12:03 10° E visible
18 Feb - 19:42:41 10° WNW 19:45:30 27° SW 19:48:17 10° SSE visible
19 Feb - 10:45:56 10° SSE 10:47:54 15° SE 10:49:52 10° E daylight
19 Feb - 12:20:50 10° WSW 12:24:01 52° NW 12:27:13 10° NE daylight
19 Feb - 13:59:24 10° NW 14:01:04 13° NNW 14:02:42 10° NNE daylight
19 Feb - 17:13:36 10° NNW 17:16:07 20° NNE 17:18:37 10° ENE daylight
19 Feb - 18:49:35 10° WNW 18:52:46 57° SW 18:55:56 10° SE visible
20 Feb - 11:27:55 10° SW 11:31:10 78° SE 11:34:26 10° NE daylight
20 Feb - 13:05:38 10° WNW 13:07:56 18° NNW 13:10:15 10° NNE daylight
20 Feb - 16:21:06 10° NNW 16:23:01 15° NNE 16:24:56 10° NE daylight
20 Feb - 17:56:43 10° NW 17:59:57 68° NE 18:03:10 10° ESE daylight
20 Feb - 19:34:54 10° WSW 19:35:57 11° SW 19:37:01 10° SSW visible
21 Feb - 10:35:22 10° SSW 10:38:23 36° SE 10:41:25 10° ENE daylight
21 Feb - 12:12:04 10° W 12:14:53 26° NNW 12:17:41 10° NNE daylight
21 Feb - 13:51:46 10° NNW 13:52:12 10° N 13:52:38 10° N daylight
21 Feb - 15:28:41 10° N 15:29:51 11° NNE 15:31:01 10° NNE daylight
21 Feb - 17:03:59 10° NW 17:07:01 36° NNE 17:10:03 10° E daylight
21 Feb - 18:40:43 10° W 18:43:19 22° SW 18:45:54 10° S visible
22 Feb - 09:43:21 10° S 09:45:41 18° SE 09:48:01 10° E daylight
22 Feb - 11:18:45 10° WSW 11:21:53 43° NNW 11:25:01 10° NE daylight
22 Feb - 12:57:33 10° NW 12:59:00 12° NNW 13:00:25 10° NNE daylight
22 Feb - 16:11:21 10° NNW 16:14:00 22° NNE 16:16:39 10° E daylight
22 Feb - 17:47:27 10° WNW 17:50:35 46° SW 17:53:41 10° SSE daylight
